Time,TemperatureF,DewpointF,PressureIn,WindDirection,WindDirectionDegrees,WindSpeedMPH,WindSpeedGustMPH,Humidity,HourlyPrecipIn,Conditions,Clouds,dailyrainin,SoftwareType,DateUTC
2013-03-10 00:00:00,35.1,29.5,30.35,ENE,68,10.0,11.0,80,0.00,,,0.00,meteohub,2013-03-10 05:00:00,
2013-03-10 00:01:00,34.9,29.3,30.35,ENE,68,9.0,11.0,80,0.00,,,0.00,meteohub,2013-03-10 05:01:00,
2013-03-10 00:02:00,34.9,29.3,30.35,ENE,68,9.0,11.0,80,0.00,,,0.00,meteohub,2013-03-10 05:02:00,
2013-03-10 00:07:00,34.9,29.3,30.35,ENE,68,9.0,10.0,80,0.00,,,0.00,meteohub,2013-03-10 05:07:00,
2013-03-10 00:12:00,34.9,29.3,30.35,ENE,68,9.0,10.0,80,0.00,,,0.00,meteohub,2013-03-10 05:12:00,
2013-03-10 00:17:00,34.7,29.1,30.35,ENE,68,6.0,9.0,80,0.00,,,0.00,meteohub,2013-03-10 05:17:00,
2013-03-10 00:22:00,34.7,29.1,30.36,ENE,68,6.0,9.0,80,0.00,,,0.00,meteohub,2013-03-10 05:22:00,
2013-03-10 00:27:00,34.7,29.1,30.36,East,90,8.0,9.0,80,0.00,,,0.00,meteohub,2013-03-10 05:27:00,
2013-03-10 00:32:00,34.7,29.1,30.36,ENE,68,5.0,8.0,80,0.00,,,0.00,meteohub,2013-03-10 05:32:00,
2013-03-10 00:37:00,34.3,28.8,30.36,NE,45,6.0,8.0,80,0.00,,,0.00,meteohub,2013-03-10 05:37:00,
2013-03-10 00:42:00,34.2,28.6,30.36,NE,45,7.0,8.0,80,0.00,,,0.00,meteohub,2013-03-10 05:42:00,
2013-03-10 00:47:00,34.2,28.6,30.36,ENE,68,6.0,7.0,80,0.00,,,0.00,meteohub,2013-03-10 05:47:00,
2013-03-10 00:52:00,34.0,28.4,30.36,ENE,68,8.0,8.0,80,0.00,,,0.00,meteohub,2013-03-10 05:52:00,
2013-03-10 00:57:00,34.0,28.4,30.36,ENE,68,7.0,8.0,80,0.00,,,0.00,meteohub,2013-03-10 05:57:00,
2013-03-10 01:02:00,34.0,28.8,30.36,ENE,68,6.0,8.0,81,0.00,,,0.00,meteohub,2013-03-10 06:02:00,
2013-03-10 01:07:00,33.6,28.4,30.36,ENE,68,5.0,8.0,81,0.00,,,0.00,meteohub,2013-03-10 06:07:00,
2013-03-10 01:12:00,33.8,28.6,30.36,NE,45,6.0,7.0,81,0.00,,,0.00,meteohub,2013-03-10 06:12:00,
2013-03-10 01:17:00,33.6,28.4,30.36,ENE,68,6.0,7.0,81,0.00,,,0.00,meteohub,2013-03-10 06:17:00,
2013-03-10 01:22:00,33.6,28.4,30.35,NE,45,6.0,7.0,81,0.00,,,0.00,meteohub,2013-03-10 06:22:00,
2013-03-10 01:27:00,33.4,28.2,30.35,ENE,68,7.0,7.0,81,0.00,,,0.00,meteohub,2013-03-10 06:27:00,
2013-03-10 01:32:00,33.4,28.6,30.35,ENE,68,4.0,7.0,82,0.00,,,0.00,meteohub,2013-03-10 06:32:00,
2013-03-10 01:37:00,33.3,28.4,30.35,NE,45,5.0,7.0,82,0.00,,,0.00,meteohub,2013-03-10 06:37:00,
2013-03-10 01:42:00,33.3,28.4,30.36,ENE,68,6.0,7.0,82,0.00,,,0.00,meteohub,2013-03-10 06:42:00,
2013-03-10 01:47:00,33.6,28.9,30.36,NE,45,7.0,7.0,83,0.00,,,0.00,meteohub,2013-03-10 06:47:00,
2013-03-10 01:52:00,33.4,28.8,30.36,ENE,68,4.0,7.0,83,0.00,,,0.00,meteohub,2013-03-10 06:52:00,
2013-03-10 01:57:00,33.3,28.4,30.36,ENE,68,6.0,7.0,82,0.00,,,0.00,meteohub,2013-03-10 06:57:00,
2013-03-10 03:02:00,33.3,28.4,30.35,ENE,68,5.0,7.0,82,0.00,,,0.00,meteohub,2013-03-10 07:02:00,
2013-03-10 03:07:00,33.3,28.4,30.35,ENE,68,5.0,7.0,82,0.00,,,0.00,meteohub,2013-03-10 07:07:00,
2013-03-10 03:12:00,33.3,28.4,30.35,ENE,68,5.0,7.0,82,0.00,,,0.00,meteohub,2013-03-10 07:12:00,
2013-03-10 03:17:00,33.3,28.6,30.35,ENE,68,6.0,6.0,83,0.00,,,0.00,meteohub,2013-03-10 07:17:00,
2013-03-10 03:22:00,33.1,28.4,30.35,ENE,68,6.0,9.0,83,0.00,,,0.00,meteohub,2013-03-10 07:22:00,
2013-03-10 03:27:00,32.9,28.2,30.35,South,180,6.0,9.0,83,0.00,,,0.00,meteohub,2013-03-10 07:27:00,
2013-03-10 03:32:00,32.9,28.2,30.35,ENE,68,9.0,9.0,83,0.00,,,0.00,meteohub,2013-03-10 07:32:00,
2013-03-10 03:37:00,32.7,28.2,30.35,ENE,68,8.0,9.0,83,0.00,,,0.00,meteohub,2013-03-10 07:37:00,
2013-03-10 03:42:00,32.7,28.4,30.35,ENE,68,8.0,9.0,84,0.00,,,0.00,meteohub,2013-03-10 07:42:00,
2013-03-10 03:47:00,32.7,28.4,30.35,East,90,8.0,9.0,84,0.00,,,0.00,meteohub,2013-03-10 07:47:00,
2013-03-10 03:52:00,32.7,28.4,30.35,ENE,68,8.0,8.0,84,0.00,,,0.00,meteohub,2013-03-10 07:52:00,
2013-03-10 03:57:00,32.7,28.4,30.35,ENE,68,9.0,9.0,84,0.00,,,0.00,meteohub,2013-03-10 07:57:00,
2013-03-10 04:02:00,32.9,28.9,30.35,ENE,68,8.0,9.0,85,0.00,,,0.00,meteohub,2013-03-10 08:02:00,
2013-03-10 04:07:00,32.9,28.9,30.35,ENE,68,10.0,10.0,85,0.00,,,0.00,meteohub,2013-03-10 08:07:00,
2013-03-10 04:12:00,33.3,29.3,30.35,ENE,68,10.0,10.0,85,0.00,,,0.00,meteohub,2013-03-10 08:12:00,
2013-03-10 04:17:00,33.3,29.3,30.35,ENE,68,8.0,10.0,85,0.00,,,0.00,meteohub,2013-03-10 08:17:00,
2013-03-10 04:22:00,33.1,29.1,30.35,ENE,68,9.0,10.0,85,0.00,,,0.00,meteohub,2013-03-10 08:22:00,
2013-03-10 04:27:00,33.3,29.5,30.35,ENE,68,6.0,11.0,86,0.00,,,0.00,meteohub,2013-03-10 08:27:00,
2013-03-10 04:32:00,33.3,29.5,30.35,ENE,68,6.0,11.0,86,0.00,,,0.00,meteohub,2013-03-10 08:32:00,
2013-03-10 04:37:00,33.1,29.1,30.35,ENE,68,9.0,10.0,85,0.00,,,0.00,meteohub,2013-03-10 08:37:00,
2013-03-10 04:42:00,33.3,29.3,30.35,ENE,68,10.0,10.0,85,0.00,,,0.00,meteohub,2013-03-10 08:42:00,
2013-03-10 04:47:00,33.3,29.5,30.35,ENE,68,7.0,10.0,86,0.00,,,0.00,meteohub,2013-03-10 08:47:00,
2013-03-10 04:52:00,33.1,29.3,30.35,ENE,68,10.0,10.0,86,0.00,,,0.00,meteohub,2013-03-10 08:52:00,
2013-03-10 04:57:00,32.9,29.1,30.35,ENE,68,6.0,10.0,86,0.00,,,0.00,meteohub,2013-03-10 08:57:00,
2013-03-10 05:02:00,32.9,29.1,30.35,NE,45,7.0,10.0,86,0.00,,,0.00,meteohub,2013-03-10 09:02:00,
2013-03-10 05:07:00,32.7,28.9,30.35,ENE,68,6.0,10.0,86,0.00,,,0.00,meteohub,2013-03-10 09:07:00,
2013-03-10 05:12:00,32.5,28.8,30.35,ENE,68,6.0,8.0,86,0.00,,,0.00,meteohub,2013-03-10 09:12:00,
2013-03-10 05:17:00,32.5,28.8,30.35,ENE,68,4.0,8.0,86,0.00,,,0.00,meteohub,2013-03-10 09:17:00,
2013-03-10 05:22:00,32.4,28.6,30.36,ESE,113,2.0,8.0,86,0.00,,,0.00,meteohub,2013-03-10 09:22:00,
2013-03-10 05:27:00,32.5,28.8,30.36,ENE,68,8.0,8.0,86,0.00,,,0.00,meteohub,2013-03-10 09:27:00,
2013-03-10 05:32:00,32.5,28.8,30.36,NE,45,6.0,8.0,86,0.00,,,0.00,meteohub,2013-03-10 09:32:00,
2013-03-10 05:37:00,32.2,28.4,30.36,NE,45,7.0,8.0,86,0.00,,,0.00,meteohub,2013-03-10 09:37:00,
2013-03-10 05:42:00,32.2,28.4,30.36,ENE,68,5.0,8.0,86,0.00,,,0.00,meteohub,2013-03-10 09:42:00,
2013-03-10 05:47:00,32.0,28.2,30.36,ENE,68,4.0,7.0,86,0.00,,,0.00,meteohub,2013-03-10 09:47:00,
2013-03-10 05:52:00,31.8,28.0,30.36,NE,45,4.0,7.0,86,0.00,,,0.00,meteohub,2013-03-10 09:52:00,
2013-03-10 05:57:00,31.8,28.0,30.36,NE,45,4.0,6.0,86,0.00,,,0.00,meteohub,2013-03-10 09:57:00,
2013-03-10 06:02:00,31.8,28.0,30.37,ENE,68,5.0,6.0,86,0.00,,,0.00,meteohub,2013-03-10 10:02:00,
2013-03-10 06:07:00,31.8,28.0,30.37,ENE,68,4.0,6.0,86,0.00,,,0.00,meteohub,2013-03-10 10:07:00,
2013-03-10 06:12:00,31.8,28.0,30.37,ENE,68,4.0,6.0,86,0.00,,,0.00,meteohub,2013-03-10 10:12:00,
2013-03-10 06:17:00,32.5,29.1,30.37,ENE,68,8.0,10.0,87,0.00,,,0.00,meteohub,2013-03-10 10:17:00,
2013-03-10 06:22:00,32.5,29.1,30.36,ENE,68,7.0,10.0,87,0.00,,,0.00,meteohub,2013-03-10 10:22:00,
2013-03-10 06:27:00,32.5,29.1,30.36,East,90,5.0,10.0,87,0.00,,,0.00,meteohub,2013-03-10 10:27:00,
2013-03-10 06:32:00,32.5,29.1,30.36,East,90,8.0,9.0,87,0.00,,,0.00,meteohub,2013-03-10 10:32:00,
2013-03-10 06:37:00,32.5,29.1,30.36,ENE,68,9.0,9.0,87,0.00,,,0.00,meteohub,2013-03-10 10:37:00,
2013-03-10 06:42:00,32.7,29.3,30.37,East,90,8.0,9.0,87,0.00,,,0.00,meteohub,2013-03-10 10:42:00,
2013-03-10 06:47:00,32.5,29.1,30.37,ENE,68,8.0,9.0,87,0.00,,,0.00,meteohub,2013-03-10 10:47:00,
2013-03-10 06:52:00,32.5,29.1,30.37,ENE,68,7.0,9.0,87,0.00,,,0.00,meteohub,2013-03-10 10:52:00,
2013-03-10 06:57:00,32.2,28.8,30.37,ENE,68,3.0,9.0,87,0.00,,,0.00,meteohub,2013-03-10 10:57:00,
2013-03-10 07:02:00,32.0,28.6,30.38,NNE,23,6.0,8.0,87,0.00,,,0.00,meteohub,2013-03-10 11:02:00,
2013-03-10 07:07:00,32.2,28.8,30.38,NE,45,7.0,7.0,87,0.00,,,0.00,meteohub,2013-03-10 11:07:00,
2013-03-10 07:12:00,31.8,28.4,30.38,NE,45,4.0,7.0,87,0.00,,,0.00,meteohub,2013-03-10 11:12:00,
2013-03-10 07:17:00,31.8,28.4,30.38,ENE,68,6.0,7.0,87,0.00,,,0.00,meteohub,2013-03-10 11:17:00,
2013-03-10 07:22:00,31.6,28.2,30.38,ENE,68,7.0,7.0,87,0.00,,,0.00,meteohub,2013-03-10 11:22:00,
2013-03-10 07:27:00,31.8,28.4,30.38,ENE,68,4.0,7.0,87,0.00,,,0.00,meteohub,2013-03-10 11:27:00,
2013-03-10 07:32:00,31.8,28.4,30.38,ENE,68,3.0,7.0,87,0.00,,,0.00,meteohub,2013-03-10 11:32:00,
2013-03-10 07:37:00,31.8,28.4,30.38,ENE,68,2.0,7.0,87,0.00,,,0.00,meteohub,2013-03-10 11:37:00,
2013-03-10 07:42:00,31.8,28.4,30.39,ENE,68,4.0,5.0,87,0.00,,,0.00,meteohub,2013-03-10 11:42:00,
2013-03-10 07:47:00,31.6,28.2,30.39,ENE,68,2.0,5.0,87,0.00,,,0.00,meteohub,2013-03-10 11:47:00,
2013-03-10 07:53:00,31.8,28.4,30.39,NE,45,5.0,5.0,87,0.00,,,0.00,meteohub,2013-03-10 11:53:00,
2013-03-10 07:58:00,31.8,28.4,30.39,ENE,68,7.0,7.0,87,0.00,,,0.00,meteohub,2013-03-10 11:58:00,
2013-03-10 08:03:00,31.8,28.4,30.40,NE,45,4.0,7.0,87,0.00,,,0.00,meteohub,2013-03-10 12:03:00,
2013-03-10 08:08:00,32.0,28.6,30.40,ENE,68,7.0,8.0,87,0.00,,,0.00,meteohub,2013-03-10 12:08:00,
2013-03-10 08:13:00,32.0,28.6,30.40,ENE,68,5.0,8.0,87,0.00,,,0.00,meteohub,2013-03-10 12:13:00,
2013-03-10 08:18:00,32.2,28.8,30.40,ENE,68,3.0,8.0,87,0.00,,,0.00,meteohub,2013-03-10 12:18:00,
2013-03-10 08:23:00,32.7,29.3,30.40,ENE,68,4.0,7.0,87,0.00,,,0.00,meteohub,2013-03-10 12:23:00,
2013-03-10 08:28:00,32.9,29.5,30.40,NNE,23,3.0,7.0,87,0.00,,,0.00,meteohub,2013-03-10 12:28:00,
2013-03-10 08:34:00,33.4,30.0,30.40,ENE,68,3.0,6.0,87,0.00,,,0.00,meteohub,2013-03-10 12:34:00,
2013-03-10 08:39:00,33.6,30.2,30.40,ENE,68,6.0,6.0,87,0.00,,,0.00,meteohub,2013-03-10 12:39:00,
2013-03-10 08:44:00,33.8,30.4,30.40,ENE,68,5.0,6.0,87,0.00,,,0.00,meteohub,2013-03-10 12:44:00,
2013-03-10 08:49:00,34.2,30.7,30.40,ENE,68,5.0,6.0,87,0.00,,,0.00,meteohub,2013-03-10 12:49:00,
2013-03-10 08:54:00,34.5,31.1,30.40,ENE,68,5.0,6.0,87,0.00,,,0.00,meteohub,2013-03-10 12:54:00,
2013-03-10 08:59:00,34.9,31.1,30.40,ENE,68,4.0,8.0,86,0.00,,,0.00,meteohub,2013-03-10 12:59:00,
2013-03-10 09:04:00,35.2,31.5,30.39,ENE,68,6.0,8.0,86,0.00,,,0.00,meteohub,2013-03-10 13:04:00,
2013-03-10 09:09:00,35.8,32.0,30.39,ESE,113,5.0,8.0,86,0.00,,,0.00,meteohub,2013-03-10 13:09:00,
2013-03-10 09:14:00,36.1,32.4,30.39,ENE,68,6.0,6.0,86,0.00,,,0.00,meteohub,2013-03-10 13:14:00,
2013-03-10 09:19:00,36.3,32.2,30.40,ESE,113,5.0,8.0,85,0.00,,,0.00,meteohub,2013-03-10 13:19:00,
2013-03-10 09:24:00,36.9,32.7,30.40,NW,315,4.0,8.0,85,0.00,,,0.00,meteohub,2013-03-10 13:24:00,
2013-03-10 09:30:00,37.2,32.9,30.40,NE,45,7.0,8.0,84,0.00,,,0.00,meteohub,2013-03-10 13:30:00,
2013-03-10 09:35:00,37.6,33.3,30.40,East,90,9.0,9.0,84,0.00,,,0.00,meteohub,2013-03-10 13:35:00,
2013-03-10 09:40:00,37.8,33.4,30.41,ENE,68,9.0,9.0,84,0.00,,,0.00,meteohub,2013-03-10 13:40:00,
2013-03-10 09:45:00,38.1,33.4,30.41,ESE,113,8.0,9.0,83,0.00,,,0.00,meteohub,2013-03-10 13:45:00,
2013-03-10 09:50:00,38.3,33.3,30.41,ENE,68,6.0,9.0,82,0.00,,,0.00,meteohub,2013-03-10 13:50:00,
2013-03-10 09:55:00,38.7,33.6,30.41,ESE,113,5.0,9.0,82,0.00,,,0.00,meteohub,2013-03-10 13:55:00,
2013-03-10 10:00:00,39.0,34.0,30.40,SE,135,5.0,7.0,82,0.00,,,0.00,meteohub,2013-03-10 14:00:00,
2013-03-10 10:05:00,39.7,34.7,30.40,ESE,113,7.0,7.0,82,0.00,,,0.00,meteohub,2013-03-10 14:05:00,
2013-03-10 10:10:00,40.1,35.1,30.40,SE,135,6.0,9.0,82,0.00,,,0.00,meteohub,2013-03-10 14:10:00,
2013-03-10 10:15:00,40.5,35.1,30.40,SE,135,14.0,14.0,81,0.00,,,0.00,meteohub,2013-03-10 14:15:00,
2013-03-10 10:20:00,40.5,35.1,30.40,SE,135,11.0,14.0,81,0.00,,,0.00,meteohub,2013-03-10 14:20:00,
2013-03-10 10:25:00,41.2,35.4,30.40,SE,135,12.0,16.0,80,0.00,,,0.00,meteohub,2013-03-10 14:25:00,
2013-03-10 10:31:00,41.5,35.6,30.40,ESE,113,6.0,16.0,79,0.00,,,0.00,meteohub,2013-03-10 14:31:00,
2013-03-10 10:36:00,41.4,35.4,30.40,SE,135,7.0,16.0,79,0.00,,,0.00,meteohub,2013-03-10 14:36:00,
2013-03-10 10:41:00,41.5,35.6,30.41,East,90,5.0,12.0,79,0.00,,,0.00,meteohub,2013-03-10 14:41:00,
2013-03-10 10:46:00,41.9,35.6,30.41,SE,135,13.0,13.0,78,0.00,,,0.00,meteohub,2013-03-10 14:46:00,
2013-03-10 10:51:00,42.3,36.0,30.41,SE,135,10.0,13.0,78,0.00,,,0.00,meteohub,2013-03-10 14:51:00,
2013-03-10 10:56:00,42.8,36.1,30.41,ESE,113,8.0,13.0,77,0.00,,,0.00,meteohub,2013-03-10 14:56:00,
2013-03-10 11:01:00,43.3,36.7,30.42,SE,135,13.0,13.0,77,0.00,,,0.00,meteohub,2013-03-10 15:01:00,
2013-03-10 11:06:00,43.5,36.9,30.42,ESE,113,9.0,13.0,77,0.00,,,0.00,meteohub,2013-03-10 15:06:00,
2013-03-10 11:11:00,43.5,36.5,30.42,ESE,113,9.0,13.0,76,0.00,,,0.00,meteohub,2013-03-10 15:11:00,
2013-03-10 11:16:00,43.0,35.6,30.42,SE,135,8.0,13.0,75,0.00,,,0.00,meteohub,2013-03-10 15:16:00,
2013-03-10 11:22:00,42.6,35.6,30.42,SSE,158,6.0,12.0,76,0.00,,,0.00,meteohub,2013-03-10 15:22:00,
2013-03-10 11:27:00,42.3,35.2,30.42,SE,135,13.0,13.0,76,0.00,,,0.00,meteohub,2013-03-10 15:27:00,
2013-03-10 11:32:00,42.1,35.1,30.42,SE,135,9.0,13.0,76,0.00,,,0.00,meteohub,2013-03-10 15:32:00,
2013-03-10 11:37:00,41.9,34.9,30.42,ESE,113,7.0,13.0,76,0.00,,,0.00,meteohub,2013-03-10 15:37:00,
2013-03-10 11:42:00,41.9,35.2,30.43,SSE,158,5.0,13.0,77,0.00,,,0.00,meteohub,2013-03-10 15:42:00,
2013-03-10 11:47:00,41.9,35.2,30.43,SSE,158,6.0,9.0,77,0.00,,,0.00,meteohub,2013-03-10 15:47:00,
2013-03-10 11:52:00,41.9,35.2,30.43,SSE,158,9.0,9.0,77,0.00,,,0.00,meteohub,2013-03-10 15:52:00,
2013-03-10 11:57:00,42.3,35.6,30.43,South,180,13.0,13.0,77,0.00,,,0.00,meteohub,2013-03-10 15:57:00,
2013-03-10 12:02:00,42.6,36.0,30.41,South,180,13.0,13.0,77,0.00,,,0.00,meteohub,2013-03-10 16:02:00,
2013-03-10 12:07:00,42.6,36.0,30.41,South,180,13.0,13.0,77,0.00,,,0.00,meteohub,2013-03-10 16:07:00,
2013-03-10 12:12:00,42.6,36.0,30.41,South,180,13.0,13.0,77,0.00,,,0.00,meteohub,2013-03-10 16:12:00,
2013-03-10 12:17:00,42.8,36.1,30.41,SSE,158,9.0,13.0,77,0.00,,,0.00,meteohub,2013-03-10 16:17:00,
2013-03-10 12:23:00,42.8,36.1,30.40,South,180,12.0,13.0,77,0.00,,,0.00,meteohub,2013-03-10 16:23:00,
2013-03-10 12:28:00,43.0,36.0,30.40,South,180,13.0,13.0,76,0.00,,,0.00,meteohub,2013-03-10 16:28:00,
2013-03-10 12:33:00,43.2,36.5,30.40,SSE,158,8.0,12.0,77,0.00,,,0.00,meteohub,2013-03-10 16:33:00,
2013-03-10 12:38:00,43.3,36.7,30.40,South,180,16.0,16.0,77,0.00,,,0.00,meteohub,2013-03-10 16:38:00,
2013-03-10 12:43:00,43.5,36.5,30.40,SSE,158,15.0,16.0,76,0.00,,,0.00,meteohub,2013-03-10 16:43:00,
2013-03-10 12:48:00,43.5,36.5,30.40,South,180,15.0,16.0,76,0.00,,,0.00,meteohub,2013-03-10 16:48:00,
2013-03-10 12:53:00,43.5,36.5,30.40,South,180,15.0,18.0,76,0.00,,,0.00,meteohub,2013-03-10 16:53:00,
2013-03-10 12:58:00,43.7,36.3,30.40,SSW,203,14.0,18.0,75,0.00,,,0.00,meteohub,2013-03-10 16:58:00,
2013-03-10 13:03:00,44.1,36.7,30.39,South,180,17.0,18.0,75,0.00,,,0.00,meteohub,2013-03-10 17:03:00,
2013-03-10 13:08:00,44.1,36.7,30.39,South,180,15.0,15.0,75,0.00,,,0.00,meteohub,2013-03-10 17:08:00,
2013-03-10 13:13:00,44.1,36.7,30.39,South,180,12.0,18.0,75,0.00,,,0.00,meteohub,2013-03-10 17:13:00,
2013-03-10 13:19:00,44.2,36.9,30.39,South,180,18.0,18.0,75,0.00,,,0.00,meteohub,2013-03-10 17:19:00,
2013-03-10 13:24:00,44.4,37.0,30.39,South,180,17.0,18.0,75,0.00,,,0.00,meteohub,2013-03-10 17:24:00,
2013-03-10 13:29:00,44.4,36.7,30.39,South,180,19.0,19.0,74,0.00,,,0.00,meteohub,2013-03-10 17:29:00,
2013-03-10 13:34:00,44.8,37.0,30.39,SW,225,18.0,19.0,74,0.00,,,0.00,meteohub,2013-03-10 17:34:00,
2013-03-10 13:39:00,44.8,36.7,30.38,South,180,16.0,19.0,73,0.00,,,0.00,meteohub,2013-03-10 17:39:00,
2013-03-10 13:44:00,45.1,37.4,30.38,South,180,17.0,19.0,74,0.00,,,0.00,meteohub,2013-03-10 17:44:00,
2013-03-10 13:49:00,45.5,37.8,30.38,South,180,17.0,20.0,74,0.00,,,0.00,meteohub,2013-03-10 17:49:00,
2013-03-10 13:54:00,45.5,37.4,30.38,South,180,17.0,20.0,73,0.00,,,0.00,meteohub,2013-03-10 17:54:00,
2013-03-10 13:59:00,45.5,37.4,30.38,South,180,13.0,20.0,73,0.00,,,0.00,meteohub,2013-03-10 17:59:00,
2013-03-10 14:05:00,45.9,37.4,30.38,South,180,13.0,17.0,72,0.00,,,0.00,meteohub,2013-03-10 18:05:00,
2013-03-10 14:10:00,46.2,37.8,30.38,South,180,14.0,18.0,72,0.00,,,0.00,meteohub,2013-03-10 18:10:00,
2013-03-10 14:15:00,46.2,37.8,30.38,South,180,14.0,16.0,72,0.00,,,0.00,meteohub,2013-03-10 18:15:00,
2013-03-10 14:20:00,46.2,37.8,30.38,SSW,203,11.0,16.0,72,0.00,,,0.00,meteohub,2013-03-10 18:20:00,
2013-03-10 14:25:00,46.4,37.6,30.38,South,180,10.0,17.0,71,0.00,,,0.00,meteohub,2013-03-10 18:25:00,
2013-03-10 14:30:00,46.6,37.8,30.38,SW,225,12.0,17.0,71,0.00,,,0.00,meteohub,2013-03-10 18:30:00,
2013-03-10 14:35:00,46.8,37.6,30.38,South,180,14.0,16.0,70,0.00,,,0.00,meteohub,2013-03-10 18:35:00,
2013-03-10 14:40:00,46.9,37.6,30.37,South,180,13.0,16.0,70,0.00,,,0.00,meteohub,2013-03-10 18:40:00,
2013-03-10 14:45:00,47.3,37.9,30.37,South,180,17.0,17.0,70,0.00,,,0.00,meteohub,2013-03-10 18:45:00,
2013-03-10 14:51:00,47.7,38.3,30.37,SW,225,13.0,17.0,70,0.00,,,0.00,meteohub,2013-03-10 18:51:00,
2013-03-10 14:56:00,47.7,38.3,30.37,SW,225,13.0,17.0,70,0.00,,,0.00,meteohub,2013-03-10 18:56:00,
2013-03-10 15:01:00,48.0,38.7,30.37,SSW,203,15.0,17.0,70,0.00,,,0.00,meteohub,2013-03-10 19:01:00,
2013-03-10 15:06:00,47.7,37.6,30.37,SSE,158,13.0,15.0,68,0.00,,,0.00,meteohub,2013-03-10 19:06:00,
2013-03-10 15:11:00,48.0,38.3,30.37,South,180,10.0,15.0,69,0.00,,,0.00,meteohub,2013-03-10 19:11:00,
2013-03-10 15:16:00,48.4,38.3,30.37,SSW,203,14.0,15.0,68,0.00,,,0.00,meteohub,2013-03-10 19:16:00,
2013-03-10 15:21:00,48.4,38.3,30.37,South,180,11.0,14.0,68,0.00,,,0.00,meteohub,2013-03-10 19:21:00,
2013-03-10 15:26:00,48.6,38.5,30.37,South,180,13.0,14.0,68,0.00,,,0.00,meteohub,2013-03-10 19:26:00,
2013-03-10 15:31:00,49.1,39.0,30.37,SW,225,10.0,14.0,68,0.00,,,0.00,meteohub,2013-03-10 19:31:00,
2013-03-10 15:36:00,48.9,38.5,30.37,SSE,158,8.0,14.0,67,0.00,,,0.00,meteohub,2013-03-10 19:36:00,
2013-03-10 15:42:00,48.9,38.5,30.37,SW,225,9.0,14.0,67,0.00,,,0.00,meteohub,2013-03-10 19:42:00,
2013-03-10 15:47:00,49.3,38.8,30.37,SW,225,9.0,14.0,67,0.00,,,0.00,meteohub,2013-03-10 19:47:00,
2013-03-10 15:52:00,49.3,38.5,30.37,SW,225,10.0,13.0,66,0.00,,,0.00,meteohub,2013-03-10 19:52:00,
2013-03-10 15:57:00,49.5,38.7,30.37,SSW,203,14.0,14.0,66,0.00,,,0.00,meteohub,2013-03-10 19:57:00,
2013-03-10 16:02:00,49.3,37.9,30.37,SW,225,12.0,14.0,65,0.00,,,0.00,meteohub,2013-03-10 20:02:00,
2013-03-10 16:07:00,49.6,38.7,30.37,SSW,203,9.0,14.0,66,0.00,,,0.00,meteohub,2013-03-10 20:07:00,
2013-03-10 16:12:00,49.8,38.5,30.37,SW,225,11.0,14.0,65,0.00,,,0.00,meteohub,2013-03-10 20:12:00,
2013-03-10 16:17:00,49.8,38.5,30.37,SSW,203,11.0,13.0,65,0.00,,,0.00,meteohub,2013-03-10 20:17:00,
2013-03-10 16:23:00,49.8,38.5,30.36,SSW,203,9.0,13.0,65,0.00,,,0.00,meteohub,2013-03-10 20:23:00,
2013-03-10 16:28:00,49.6,38.3,30.36,South,180,8.0,13.0,65,0.00,,,0.00,meteohub,2013-03-10 20:28:00,
2013-03-10 16:33:00,49.6,38.3,30.36,South,180,12.0,12.0,65,0.00,,,0.00,meteohub,2013-03-10 20:33:00,
2013-03-10 16:38:00,49.8,38.1,30.36,SSW,203,7.0,12.0,64,0.00,,,0.00,meteohub,2013-03-10 20:38:00,
2013-03-10 16:44:00,49.8,38.1,30.36,SW,225,8.0,12.0,64,0.00,,,0.00,meteohub,2013-03-10 20:44:00,
2013-03-10 16:49:00,49.6,37.9,30.36,WSW,248,8.0,12.0,64,0.00,,,0.00,meteohub,2013-03-10 20:49:00,
2013-03-10 16:54:00,49.3,37.6,30.36,SW,225,8.0,12.0,64,0.00,,,0.00,meteohub,2013-03-10 20:54:00,
2013-03-10 16:59:00,49.3,37.6,30.36,SW,225,10.0,10.0,64,0.00,,,0.00,meteohub,2013-03-10 20:59:00,
2013-03-10 17:05:00,49.3,37.6,30.36,SSW,203,9.0,10.0,64,0.00,,,0.00,meteohub,2013-03-10 21:05:00,
2013-03-10 17:10:00,49.1,37.4,30.36,SW,225,8.0,10.0,64,0.00,,,0.00,meteohub,2013-03-10 21:10:00,
2013-03-10 17:15:00,48.9,37.2,30.36,SSW,203,7.0,10.0,64,0.00,,,0.00,meteohub,2013-03-10 21:15:00,
2013-03-10 17:20:00,48.7,37.0,30.36,SW,225,7.0,9.0,64,0.00,,,0.00,meteohub,2013-03-10 21:20:00,
2013-03-10 17:26:00,48.7,37.0,30.36,WSW,248,8.0,10.0,64,0.00,,,0.00,meteohub,2013-03-10 21:26:00,
2013-03-10 17:31:00,48.6,36.9,30.36,SW,225,8.0,10.0,64,0.00,,,0.00,meteohub,2013-03-10 21:31:00,
2013-03-10 17:37:00,48.0,36.5,30.36,SW,225,10.0,10.0,64,0.00,,,0.00,meteohub,2013-03-10 21:37:00,
2013-03-10 17:42:00,47.3,36.1,30.35,SSW,203,11.0,11.0,65,0.00,,,0.00,meteohub,2013-03-10 21:42:00,
2013-03-10 17:47:00,47.1,36.0,30.35,South,180,12.0,12.0,65,0.00,,,0.00,meteohub,2013-03-10 21:47:00,
2013-03-10 17:52:00,46.8,35.6,30.35,South,180,11.0,12.0,65,0.00,,,0.00,meteohub,2013-03-10 21:52:00,
2013-03-10 17:57:00,46.2,35.4,30.35,SE,135,8.0,12.0,66,0.00,,,0.00,meteohub,2013-03-10 21:57:00,
2013-03-10 18:03:00,45.7,35.1,30.35,SE,135,7.0,12.0,66,0.00,,,0.00,meteohub,2013-03-10 22:03:00,
2013-03-10 18:08:00,45.5,34.9,30.35,SW,225,7.0,11.0,66,0.00,,,0.00,meteohub,2013-03-10 22:08:00,
2013-03-10 18:13:00,44.8,34.5,30.35,SW,225,9.0,11.0,67,0.00,,,0.00,meteohub,2013-03-10 22:13:00,
2013-03-10 18:18:00,43.9,33.6,30.35,SW,225,8.0,11.0,67,0.00,,,0.00,meteohub,2013-03-10 22:18:00,
2013-03-10 18:23:00,43.5,33.6,30.36,South,180,8.0,11.0,68,0.00,,,0.00,meteohub,2013-03-10 22:23:00,
2013-03-10 18:29:00,43.0,33.4,30.36,SW,225,7.0,11.0,69,0.00,,,0.00,meteohub,2013-03-10 22:29:00,
2013-03-10 18:34:00,42.4,33.4,30.36,South,180,5.0,11.0,70,0.00,,,0.00,meteohub,2013-03-10 22:34:00,
2013-03-10 18:39:00,42.1,33.4,30.36,SW,225,9.0,9.0,71,0.00,,,0.00,meteohub,2013-03-10 22:39:00,
2013-03-10 18:44:00,41.4,33.1,30.36,SW,225,7.0,8.0,72,0.00,,,0.00,meteohub,2013-03-10 22:44:00,
2013-03-10 18:50:00,41.0,33.1,30.36,NW,315,4.0,9.0,73,0.00,,,0.00,meteohub,2013-03-10 22:50:00,
2013-03-10 18:55:00,40.8,32.9,30.36,SW,225,7.0,9.0,73,0.00,,,0.00,meteohub,2013-03-10 22:55:00,
2013-03-10 19:00:00,40.6,33.1,30.37,SW,225,6.0,7.0,74,0.00,,,0.00,meteohub,2013-03-10 23:00:00,
2013-03-10 19:06:00,40.1,32.9,30.37,SW,225,6.0,7.0,75,0.00,,,0.00,meteohub,2013-03-10 23:06:00,
2013-03-10 19:11:00,40.1,32.9,30.37,South,180,6.0,7.0,75,0.00,,,0.00,meteohub,2013-03-10 23:11:00,
2013-03-10 19:17:00,39.7,32.5,30.37,SW,225,8.0,8.0,75,0.00,,,0.00,meteohub,2013-03-10 23:17:00,
2013-03-10 19:22:00,39.6,32.5,30.37,SW,225,6.0,8.0,76,0.00,,,0.00,meteohub,2013-03-10 23:22:00,
2013-03-10 19:27:00,39.4,32.5,30.37,South,180,6.0,8.0,76,0.00,,,0.00,meteohub,2013-03-10 23:27:00,
2013-03-10 19:32:00,39.2,32.4,30.37,SW,225,8.0,8.0,76,0.00,,,0.00,meteohub,2013-03-10 23:32:00,
2013-03-10 19:37:00,39.0,32.2,30.37,SSW,203,7.0,9.0,76,0.00,,,0.00,meteohub,2013-03-10 23:37:00,
2013-03-10 19:42:00,38.7,32.0,30.37,SSW,203,7.0,9.0,77,0.00,,,0.00,meteohub,2013-03-10 23:42:00,
2013-03-10 19:48:00,38.5,31.8,30.37,SW,225,7.0,8.0,77,0.00,,,0.00,meteohub,2013-03-10 23:48:00,
2013-03-10 19:53:00,38.5,32.2,30.37,SW,225,7.0,9.0,78,0.00,,,0.00,meteohub,2013-03-10 23:53:00,
2013-03-10 19:58:00,38.3,32.0,30.37,WSW,248,6.0,9.0,78,0.00,,,0.00,meteohub,2013-03-10 23:58:00,
2013-03-10 20:03:00,38.3,32.0,30.37,SW,225,8.0,8.0,78,0.00,,,0.00,meteohub,2013-03-11 00:03:00,
2013-03-10 20:09:00,38.3,32.0,30.37,SW,225,6.0,9.0,78,0.00,,,0.00,meteohub,2013-03-11 00:09:00,
2013-03-10 20:14:00,38.3,32.4,30.37,SW,225,8.0,9.0,79,0.00,,,0.00,meteohub,2013-03-11 00:14:00,
2013-03-10 20:19:00,38.5,32.5,30.38,SW,225,9.0,9.0,79,0.00,,,0.00,meteohub,2013-03-11 00:19:00,
2013-03-10 20:24:00,38.3,32.4,30.38,SW,225,9.0,9.0,79,0.00,,,0.00,meteohub,2013-03-11 00:24:00,
2013-03-10 20:30:00,38.3,32.4,30.38,South,180,10.0,10.0,79,0.00,,,0.00,meteohub,2013-03-11 00:30:00,
2013-03-10 20:35:00,37.9,32.0,30.38,South,180,8.0,10.0,79,0.00,,,0.00,meteohub,2013-03-11 00:35:00,
2013-03-10 20:40:00,37.9,32.0,30.36,SW,225,10.0,10.0,79,0.00,,,0.00,meteohub,2013-03-11 00:40:00,
2013-03-10 20:45:00,37.9,32.0,30.36,SSW,203,9.0,10.0,79,0.00,,,0.00,meteohub,2013-03-11 00:45:00,
2013-03-10 20:50:00,37.9,32.0,30.36,SW,225,6.0,10.0,79,0.00,,,0.00,meteohub,2013-03-11 00:50:00,
2013-03-10 20:55:00,37.9,32.4,30.36,West,270,3.0,10.0,80,0.00,,,0.00,meteohub,2013-03-11 00:55:00,
2013-03-10 21:01:00,37.9,32.4,30.36,SW,225,3.0,9.0,80,0.00,,,0.00,meteohub,2013-03-11 01:01:00,
2013-03-10 21:06:00,37.9,32.4,30.36,SSW,203,6.0,7.0,80,0.00,,,0.00,meteohub,2013-03-11 01:06:00,
2013-03-10 21:12:00,37.8,32.2,30.36,SSW,203,4.0,7.0,80,0.00,,,0.00,meteohub,2013-03-11 01:12:00,
2013-03-10 21:17:00,37.9,32.4,30.36,West,270,3.0,7.0,80,0.00,,,0.00,meteohub,2013-03-11 01:17:00,
2013-03-10 21:22:00,37.8,32.2,30.37,WSW,248,2.0,6.0,80,0.00,,,0.00,meteohub,2013-03-11 01:22:00,
2013-03-10 21:27:00,37.8,32.2,30.37,WSW,248,3.0,5.0,80,0.00,,,0.00,meteohub,2013-03-11 01:27:00,
2013-03-10 21:33:00,37.8,32.5,30.37,SW,225,5.0,5.0,81,0.00,,,0.00,meteohub,2013-03-11 01:33:00,
2013-03-10 21:38:00,37.8,32.5,30.37,SSW,203,4.0,4.0,81,0.00,,,0.00,meteohub,2013-03-11 01:38:00,
2013-03-10 21:43:00,37.8,32.5,30.36,SW,225,7.0,7.0,81,0.00,,,0.00,meteohub,2013-03-11 01:43:00,
2013-03-10 21:48:00,37.6,32.4,30.36,SW,225,4.0,7.0,81,0.00,,,0.00,meteohub,2013-03-11 01:48:00,
2013-03-10 21:53:00,37.6,32.5,30.36,WSW,248,7.0,7.0,82,0.00,,,0.00,meteohub,2013-03-11 01:53:00,
2013-03-10 21:59:00,37.6,32.5,30.36,SW,225,6.0,7.0,82,0.00,,,0.00,meteohub,2013-03-11 01:59:00,
2013-03-10 22:04:00,37.2,32.2,30.37,SW,225,4.0,7.0,82,0.00,,,0.00,meteohub,2013-03-11 02:04:00,
2013-03-10 22:09:00,37.2,32.2,30.37,SW,225,5.0,7.0,82,0.00,,,0.00,meteohub,2013-03-11 02:09:00,
2013-03-10 22:14:00,37.2,32.2,30.37,SW,225,5.0,6.0,82,0.00,,,0.00,meteohub,2013-03-11 02:14:00,
2013-03-10 22:20:00,37.2,32.2,30.36,SW,225,5.0,5.0,82,0.00,,,0.00,meteohub,2013-03-11 02:20:00,
2013-03-10 22:25:00,37.2,32.2,30.36,West,270,4.0,5.0,82,0.00,,,0.00,meteohub,2013-03-11 02:25:00,
2013-03-10 22:30:00,37.2,32.5,30.36,SW,225,7.0,7.0,83,0.00,,,0.00,meteohub,2013-03-11 02:30:00,
2013-03-10 22:35:00,37.2,32.5,30.36,SW,225,6.0,7.0,83,0.00,,,0.00,meteohub,2013-03-11 02:35:00,
2013-03-10 22:41:00,37.4,32.7,30.36,SW,225,7.0,7.0,83,0.00,,,0.00,meteohub,2013-03-11 02:41:00,
2013-03-10 22:46:00,37.4,32.7,30.36,SSW,203,7.0,7.0,83,0.00,,,0.00,meteohub,2013-03-11 02:46:00,
2013-03-10 22:51:00,37.8,33.1,30.36,SW,225,4.0,7.0,83,0.00,,,0.00,meteohub,2013-03-11 02:51:00,
2013-03-10 22:56:00,37.8,33.1,30.36,SW,225,7.0,7.0,83,0.00,,,0.00,meteohub,2013-03-11 02:56:00,
2013-03-10 23:01:00,37.9,33.3,30.36,SW,225,6.0,7.0,83,0.00,,,0.00,meteohub,2013-03-11 03:01:00,
2013-03-10 23:06:00,37.9,33.3,30.36,SW,225,6.0,7.0,83,0.00,,,0.00,meteohub,2013-03-11 03:06:00,
2013-03-10 23:12:00,38.1,33.4,30.36,WSW,248,4.0,7.0,83,0.00,,,0.00,meteohub,2013-03-11 03:12:00,
2013-03-10 23:17:00,38.3,33.6,30.36,SW,225,6.0,6.0,83,0.00,,,0.00,meteohub,2013-03-11 03:17:00,
2013-03-10 23:22:00,38.3,33.6,30.35,SSW,203,7.0,7.0,83,0.00,,,0.00,meteohub,2013-03-11 03:22:00,
2013-03-10 23:27:00,38.5,33.8,30.35,South,180,7.0,7.0,83,0.00,,,0.00,meteohub,2013-03-11 03:27:00,
2013-03-10 23:32:00,38.5,33.8,30.35,WSW,248,4.0,8.0,83,0.00,,,0.00,meteohub,2013-03-11 03:32:00,
2013-03-10 23:37:00,38.7,34.0,30.35,SW,225,7.0,8.0,83,0.00,,,0.00,meteohub,2013-03-11 03:37:00,
2013-03-10 23:42:00,38.7,34.0,30.35,SSW,203,5.0,8.0,83,0.00,,,0.00,meteohub,2013-03-11 03:42:00,
2013-03-10 23:47:00,38.8,34.2,30.35,SW,225,6.0,7.0,83,0.00,,,0.00,meteohub,2013-03-11 03:47:00,
2013-03-10 23:52:00,38.8,34.2,30.35,SW,225,9.0,9.0,83,0.00,,,0.00,meteohub,2013-03-11 03:52:00,
2013-03-10 23:57:00,39.0,34.3,30.35,SSW,203,10.0,10.0,83,0.00,,,0.00,meteohub,2013-03-11 03:57:00,